Flag for Brazil Weather past 2 weeks in Sorocaba, São Paulo, Brazil

Now
82 °F

Scattered clouds.


Feels Like: 85 °F
Forecast: 73 / 82 °F
Wind: 13 mph from Northwest

Location: Campinas Aeroporto

Current Time: Dec 22, 2014 at 2:30:20 PM

Latest Report: Dec 22, 2014 at 2:00 PM


Visibility: N/A

Pressure: 29.95 "Hg

Humidity: 62%

Dew point: 68 °F

Location of SorocabaLocation

Historic Weather in Sorocaba — Graph

°F

Sorocaba temperature yesterday

Maximum temperature yesterday: 86 °F (at 2:00 PM)
Minimum temperature yesterday: 72 °F (at 6:00 AM)
Average temperature yesterday: 77 °F

Past Weeks' High & Low Weather Summary

 TemperatureHumidityPressure
High91 °F (Dec 7, 7:00 PM)100% (Dec 14, 4:00 AM)30.09 "Hg (Dec 14, 4:00 AM)
Low61 °F (Dec 15, 6:00 AM)26% (Dec 7, 6:00 PM)29.80 "Hg (Dec 18, 6:00 PM)
Average75 °F70%29.96 "Hg
* Reported Dec 7 1:00 PM — Dec 22 1:00 PM, Sorocaba, Weather by CustomWeather, © 2014

Note: Actual official high and low records may vary slightly from our data, if they occured in-between our weather recording intervals... More about our weather records

Advertising

Sorocaba weather history for previous 24 hours

 ConditionsComfort  
Time TempWeatherWind HumidityBarometerVisibility
1:00 PM
Dec 22
81 °FPartly sunny.12 mph70%29.98 "HgN/A
12:00 PM81 °FMostly cloudy.13 mph70%30.01 "HgN/A
11:00 AM77 °FMostly cloudy.14 mph74%30.01 "HgN/A
10:00 AM75 °FMostly cloudy.12 mph83%30.01 "HgN/A
9:00 AM73 °FMostly cloudy.10 mph89%29.98 "HgN/A
8:00 AM73 °FMostly cloudy.9 mph89%29.98 "HgN/A
7:00 AM72 °FLight rain. Broken clouds.9 mph94%29.98 "HgN/A
6:00 AM72 °FLight rain. Partly cloudy.10 mph94%29.95 "HgN/A
5:00 AM72 °FPassing clouds.9 mph94%29.95 "HgN/A
4:00 AM72 °FLight rain. Mostly cloudy.10 mph94%29.95 "HgN/A
3:00 AM72 °FMostly cloudy.10 mph94%29.95 "HgN/A
2:00 AM73 °FPartly cloudy.12 mph89%29.95 "HgN/A
1:00 AM73 °FPassing clouds.10 mph89%29.95 "HgN/A
12:00 AM73 °FPartly cloudy.6 mph89%29.98 "HgN/A
11:00 PM
Dec 21
73 °FScattered showers. Partly cloudy.7 mph89%29.98 "HgN/A
10:00 PM73 °FPassing clouds.6 mph89%29.95 "HgN/A
9:00 PM73 °FClear.5 mph89%29.95 "Hg10 mi
8:00 PM73 °FOvercast.7 mph89%29.89 "HgN/A
7:00 PM73 °FThunderstorms. Scattered clouds.10 mph94%N/A4 mi
6:00 PM81 °FThunderstorms. Scattered clouds.13 mph66%29.83 "HgN/A
5:00 PM81 °FPassing clouds.15 mph66%29.83 "HgN/A
4:00 PM79 °FPassing clouds.15 mph70%29.86 "HgN/A
3:00 PM84 °FScattered showers. Scattered clouds.16 mph55%29.89 "HgN/A
2:00 PM86 °FScattered showers. Partly sunny.13 mph52%29.92 "HgN/A
Weather by CustomWeather, © 2014

See weather overviewHow to use our weather pages